User: anonymous   Login
Location: Moonridge Observatory
(39.2268°N, 77.7914°W)
Time: 19:15:40
(UTC-05:00)
Language:

CZ-2C R/B - Orbit

View from above orbital plane
View from above orbital plane
View from above satellite
View from above satellite

Ground track
Ground track

The orbit data is extracted from the following two-line orbital elements,

1 28480U 04046B   17053.21525330  .00000019  00000-0  22714-4 0  9993
2 28480  98.1923 156.8442 0141698 203.4042 245.7624 14.25627060637852
Epoch (UTC): 22 February 2017 05:09:57
Eccentricity: 0.0141698
inclination: 98.1923°
perigee height: 704 km
apogee height: 908 km
right ascension of ascending node: 156.8442°
argument of perigee: 203.4042°
revolutions per day: 14.25627060
mean anomaly at epoch: 245.7624°
orbit number at epoch: 63785

The dashed part of the orbit path shows where the satellite is in the earth's shadow,  

DLR